Weather History for Deming, NM

Change the Weather History Date:

Tuesday, September 3, 2013

  Actual Average Record
Temperature  
Mean Temperature 78 °F 76 °F  
Max Temperature 93 °F 91 °F 102 °F (1948)
Min Temperature 66 °F 61 °F 48 °F (1955)
Cooling Degree Days 14    
Growing Degree Days 28 (Base 50)    
Moisture  
Dew Point 53 °F    
Average Humidity 42    
Maximum Humidity 76    
Minimum Humidity 23    
Precipitation  
Precipitation 0.00 in 0.05 in 1.16 in (2006)
Month to date precipitation 0.15  
Year to date precipitation 7.74  
Sea Level Pressure  
Sea Level Pressure 29.88 in    
Wind  
Wind Speed 8 mph (East)    
Max Wind Speed 12 mph    
Max Gust Speed 18 mph    
Visibility 10 miles    
Events      
T = Trace of Precipitation, MM = Missing Value Source: NWS Daily Summary

Daily Weather History Graph

Daily Weather History Graph

Search for Another Location

Airport:

Trip Planner

Search our weather history database for the weather conditions in past years. The results will help you decide how hot, cold, wet, or windy it might be!

Date:

Astronomy

Sep. 03, 2013 Rise Set
Actual Time 6:47 AM MDT 7:32 PM MDT
Civil Twilight 6:22 AM MDT 7:57 PM MDT
Nautical Twilight 5:53 AM MDT 8:26 PM MDT
Astronomical Twilight 5:23 AM MDT 8:56 PM MDT
Moon 5:07 AM MDT (9/3) 6:20 PM MDT (9/3)
Length of Visible Light 13h 34m
Length of Day
12h 44m
Waning Crescent, 3% of the Moon is Illuminated
Sep 3
Waning Crescent
Sep 5
New
Sep 12
First Quarter
Sep 19
Full
Sep 26
Last Quarter

Hourly Weather History & Observations

Time (MDT) Temp. Heat Index Dew Point Humidity Pressure Visibility Wind Dir Wind Speed Gust Speed Precip Events Conditions
12:53 AM 80.1 °F 80.0 °F 54.0 °F 40% 29.87 in 10.0 mi East 11.5 mph - N/A   Partly Cloudy
1:53 AM 75.0 °F - 57.0 °F 53% 29.88 in 10.0 mi East 4.6 mph - N/A   Partly Cloudy
2:53 AM 73.9 °F - 57.9 °F 57% 29.88 in 10.0 mi ESE 6.9 mph - N/A   Overcast
3:53 AM 73.0 °F - 57.9 °F 59% 29.88 in 10.0 mi East 3.5 mph - N/A   Scattered Clouds
4:53 AM 70.0 °F - 59.0 °F 68% 29.89 in 10.0 mi ENE 4.6 mph - N/A   Clear
5:53 AM 69.1 °F - 57.9 °F 68% 29.89 in 10.0 mi East 4.6 mph - N/A   Clear
6:53 AM 66.9 °F - 59.0 °F 76% 29.91 in 10.0 mi NE 5.8 mph - N/A   Partly Cloudy
7:53 AM 73.0 °F - 57.9 °F 59% 29.93 in 10.0 mi ENE 6.9 mph - N/A   Clear
8:53 AM 78.1 °F - 57.9 °F 50% 29.94 in 10.0 mi East 10.4 mph - N/A   Clear
9:53 AM 81.0 °F 80.8 °F 55.9 °F 42% 29.94 in 10.0 mi East 10.4 mph - N/A   Clear
10:53 AM 84.9 °F 83.7 °F 55.9 °F 37% 29.95 in 10.0 mi ESE 9.2 mph - N/A   Clear
11:53 AM 86.0 °F 84.5 °F 55.0 °F 35% 29.94 in 10.0 mi East 9.2 mph 17.3 mph N/A   Partly Cloudy
12:53 PM 89.1 °F 86.7 °F 53.1 °F 29% 29.91 in 10.0 mi ESE 9.2 mph 18.4 mph N/A   Clear
1:53 PM 90.0 °F - 52.0 °F 27% 29.89 in 10.0 mi East 8.1 mph - N/A   Clear
2:53 PM 91.0 °F - 50.0 °F 24% 29.86 in 10.0 mi SE 11.5 mph 17.3 mph N/A   Clear
3:53 PM 91.0 °F - 48.9 °F 23% 29.83 in 10.0 mi SE 9.2 mph - N/A   Clear
4:53 PM 91.9 °F - 50.0 °F 24% 29.81 in 10.0 mi East 6.9 mph - N/A   Clear
5:53 PM 90.0 °F - 48.0 °F 24% 29.81 in 10.0 mi East 8.1 mph - N/A   Clear
6:53 PM 88.0 °F - 46.9 °F 24% 29.81 in 10.0 mi ESE 6.9 mph 17.3 mph N/A   Clear
7:53 PM 82.9 °F - 48.0 °F 29% 29.82 in 10.0 mi ESE 4.6 mph - N/A   Clear
8:53 PM 80.1 °F - 50.0 °F 35% 29.83 in 10.0 mi ESE 4.6 mph - N/A   Clear
9:53 PM 77.0 °F - 48.9 °F 37% 29.86 in 10.0 mi SE 4.6 mph - N/A   Clear
10:53 PM 73.0 °F - 48.9 °F 42% 29.90 in 10.0 mi East 4.6 mph - N/A   Clear
11:53 PM 75.0 °F - 46.0 °F 36% 29.91 in 10.0 mi East 6.9 mph - N/A   Clear